Weather History for Randolph AFB, TX

Change the Weather History Date:

Saturday, July 27, 2013

  Actual Average Record
Temperature  
Mean Temperature 82 °F -  
Max Temperature 90 °F 94 °F 101 °F (2011)
Min Temperature 75 °F 72 °F 68 °F (2004)
Cooling Degree Days 17    
Growing Degree Days 32 (Base 50)    
Moisture  
Dew Point 73 °F    
Average Humidity 73    
Maximum Humidity 96    
Minimum Humidity 55    
Precipitation  
Precipitation 0.08 in - - ()
Sea Level Pressure  
Sea Level Pressure 29.96 in    
Wind  
Wind Speed 8 mph (NE)    
Max Wind Speed 17 mph    
Max Gust Speed 21 mph    
Visibility 10 miles    
Events Rain , Thunderstorm    
Averages and records for this station are not official NWS values.
T = Trace of Precipitation, MM = Missing Value Source: NWS Daily Summary

Daily Weather History Graph

Daily Weather History Graph

Search for Another Location

Airport:

Trip Planner

Search our weather history database for the weather conditions in past years. The results will help you decide how hot, cold, wet, or windy it might be!

Date:

Astronomy

Jul. 27, 2013 Rise Set
Actual Time 6:50 AM CDT 8:28 PM CDT
Civil Twilight 6:24 AM CDT 8:54 PM CDT
Nautical Twilight 5:52 AM CDT 9:25 PM CDT
Astronomical Twilight 5:20 AM CDT 9:58 PM CDT
Moon 11:49 PM CDT (7/27) 12:01 PM CDT (7/27)
Length of Visible Light 14h 30m
Length of Day
13h 38m
Waning Gibbous, 70% of the Moon is Illuminated
Jul 27
Waning Gibbous
Jul 29
Last Quarter
Aug 6
New
Aug 14
First Quarter
Aug 20
Full

Hourly Weather History & Observations

Time (CDT) Temp. Heat Index Dew Point Humidity Pressure Visibility Wind Dir Wind Speed Gust Speed Precip Events Conditions
12:58 AM 81.1 °F 85.6 °F 72.1 °F 74% 29.94 in 10.0 mi South 6.9 mph - N/A   Partly Cloudy
1:58 AM 81.0 °F 85.2 °F 72.0 °F 74% 29.94 in 10.0 mi South 5.8 mph - N/A   Overcast
1:59 AM 80.6 °F 84.6 °F 71.6 °F 74% 29.97 in 10.0 mi South 5.8 mph - N/A   Overcast
2:00 AM 80.6 °F 84.6 °F 71.6 °F 74% 29.97 in 10.0 mi South 6.9 mph - N/A Thunderstorm Thunderstorm
2:14 AM 80.6 °F 84.6 °F 71.6 °F 74% 30.02 in 10.0 mi NE 12.7 mph - N/A Thunderstorm Thunderstorm
2:15 AM 80.6 °F 84.6 °F 71.6 °F 74% 30.02 in 10.0 mi NE 13.8 mph - N/A   Overcast
2:30 AM 80.6 °F 84.6 °F 71.6 °F 74% 30.02 in 10.0 mi NE 8.1 mph - N/A   Overcast
2:31 AM 80.6 °F 84.6 °F 71.6 °F 74% 30.02 in 10.0 mi NE 8.1 mph - N/A   Light Drizzle
2:46 AM 78.8 °F - 73.4 °F 83% 30.01 in 9.0 mi SE 2.3 mph - N/A Rain Light Rain
2:58 AM 78.4 °F - 74.1 °F 87% 29.97 in 6.0 mi SSW 1.2 mph - 0.05 in Rain , Thunderstorm Light Rain
3:03 AM 78.8 °F - 73.4 °F 83% 29.99 in 3.0 mi West 1.2 mph - N/A Rain , Thunderstorm Rain
3:13 AM 77.0 °F - 73.4 °F 89% 29.99 in 9.0 mi Calm Calm - N/A Rain Light Rain
3:18 AM 77.0 °F - 75.2 °F 94% 29.98 in 10.0 mi ENE 1.2 mph - N/A Rain Light Rain
3:30 AM 77.0 °F - 75.2 °F 94% 29.96 in 10.0 mi ESE 3.5 mph - N/A   Mostly Cloudy
3:58 AM 76.8 °F - 73.6 °F 90% 29.91 in 10.0 mi West 3.5 mph - 0.03 in   Clear
4:58 AM 77.0 °F - 75.2 °F 94% 29.90 in 10.0 mi SW 3.5 mph - N/A   Clear
6:44 AM 75.2 °F - 73.4 °F 94% 29.96 in 10.0 mi NE 2.3 mph - N/A Rain Light Rain
6:55 AM 75.2 °F - 73.4 °F 94% 29.96 in 10.0 mi ENE 2.3 mph - N/A Rain Light Rain
7:06 AM 75.2 °F - 73.4 °F 94% 29.97 in 10.0 mi NNE 2.3 mph - N/A   Partly Cloudy
7:58 AM 76.1 °F - 74.8 °F 96% 29.96 in 10.0 mi East 2.3 mph - 0.00 in   Clear
8:58 AM 79.0 °F - 74.1 °F 85% 29.96 in 10.0 mi SSE 4.6 mph - N/A   Clear
9:58 AM 81.5 °F 87.2 °F 73.9 °F 78% 29.96 in 10.0 mi NW 3.5 mph - N/A   Mostly Cloudy
10:58 AM 82.4 °F 89.0 °F 74.5 °F 77% 29.96 in 10.0 mi NNE 6.9 mph - N/A   Overcast
11:43 AM 84.2 °F 92.3 °F 75.2 °F 74% 29.98 in 10.0 mi NNE 8.1 mph - N/A   Overcast
11:58 AM 85.5 °F 93.8 °F 74.8 °F 70% 29.96 in 10.0 mi NNE 9.2 mph - N/A   Overcast
12:13 PM 86.0 °F 95.1 °F 75.2 °F 70% 29.98 in 10.0 mi NE 10.4 mph - N/A   Mostly Cloudy
12:18 PM 86.0 °F 95.1 °F 75.2 °F 70% 29.98 in 10.0 mi NE 11.5 mph - N/A   Mostly Cloudy
12:23 PM 86.0 °F 95.1 °F 75.2 °F 70% 29.98 in 10.0 mi NE 13.8 mph - N/A   Mostly Cloudy
12:28 PM 86.0 °F 95.1 °F 75.2 °F 70% 29.98 in 10.0 mi NE 11.5 mph - N/A   Mostly Cloudy
12:38 PM 87.8 °F 97.6 °F 75.2 °F 66% 29.98 in 10.0 mi NE 10.4 mph - N/A   Mostly Cloudy
12:53 PM 87.8 °F 97.6 °F 75.2 °F 66% 29.97 in 10.0 mi NNE 9.2 mph - N/A   Mostly Cloudy
12:58 PM 87.8 °F 97.6 °F 75.2 °F 66% 29.95 in 10.0 mi NNE 10.4 mph - N/A   Mostly Cloudy
1:03 PM 87.8 °F 97.6 °F 75.2 °F 66% 29.97 in 10.0 mi NNE 10.4 mph - N/A   Mostly Cloudy
1:08 PM 87.8 °F 95.6 °F 73.4 °F 62% 29.97 in 10.0 mi NE 8.1 mph - N/A   Mostly Cloudy
1:13 PM 87.8 °F 97.6 °F 75.2 °F 66% 29.97 in 10.0 mi ENE 6.9 mph - N/A   Mostly Cloudy
1:18 PM 87.8 °F 97.6 °F 75.2 °F 66% 29.97 in 10.0 mi NE 11.5 mph - N/A   Mostly Cloudy
1:23 PM 87.8 °F 97.6 °F 75.2 °F 66% 29.97 in 10.0 mi NNE 16.1 mph - N/A   Mostly Cloudy
1:28 PM 86.0 °F 95.1 °F 75.2 °F 70% 29.97 in 10.0 mi NNE 12.7 mph - N/A   Mostly Cloudy
1:58 PM 86.2 °F 93.8 °F 73.8 °F 66% 29.94 in 10.0 mi NNE 11.5 mph - N/A   Overcast
2:18 PM 87.8 °F 95.6 °F 73.4 °F 62% 29.96 in 10.0 mi NNE 11.5 mph - N/A   Overcast
2:33 PM 87.8 °F 97.6 °F 75.2 °F 66% 29.95 in 10.0 mi NE 11.5 mph - N/A   Overcast
2:48 PM 87.8 °F 95.6 °F 73.4 °F 62% 29.95 in 10.0 mi ENE 13.8 mph - N/A   Overcast
3:03 PM 86.0 °F 93.4 °F 73.4 °F 66% 29.95 in 10.0 mi NE 12.7 mph - N/A   Overcast
3:08 PM 86.0 °F 93.4 °F 73.4 °F 66% 29.95 in 10.0 mi NE 13.8 mph - N/A   Overcast
3:58 PM 88.7 °F 96.7 °F 73.2 °F 60% 29.91 in 10.0 mi NE 10.4 mph - N/A   Overcast
4:58 PM 89.8 °F 96.5 °F 71.8 °F 55% 29.86 in 10.0 mi NNE 13.8 mph - N/A   Scattered Clouds
5:58 PM 89.8 °F 96.5 °F 71.6 °F 55% 29.88 in 10.0 mi NE 17.3 mph 20.7 mph N/A   Clear
6:58 PM 88.7 °F 94.3 °F 70.5 °F 55% 29.86 in 10.0 mi NE 15.0 mph - N/A   Clear
7:58 PM 86.7 °F 91.0 °F 69.1 °F 56% 29.89 in 10.0 mi ENE 9.2 mph - N/A   Clear
8:58 PM 82.2 °F 85.8 °F 69.3 °F 65% 29.91 in 10.0 mi ENE 8.1 mph - N/A   Clear
9:58 PM 80.6 °F 83.6 °F 69.3 °F 68% 29.91 in 10.0 mi ENE 10.4 mph - N/A   Clear
10:58 PM 78.8 °F - 69.1 °F 72% 29.91 in 10.0 mi NE 9.2 mph - N/A   Clear
11:58 PM 77.5 °F - 68.7 °F 74% 29.92 in 10.0 mi ENE 9.2 mph - N/A   Mostly Cloudy